Preview of NWS' New Version of Forecast
This preview is not operational and should not be used for support decisions.
Latest weather observations around

Duluth International Airport (KDLH)

Using International System of Units (Switch to English Units)
Date/ Time (CDT) Wind (kph) Vis. (km) Weather Sky Cond. Temp (°C) Rel. Humidity Wind Chill (°C) Heat Index (°C) Pressure Precip. (cm)
Air Dwpt 6 hour Altimeter (hPa) Sea level (hPa) 1 hr 3 hr 6 hr
Max Min
Notice The following observation data may not be complete
Apr 22 23:55 SW 5 16.09 Clear CLR   -3      %     1023.4 1024.2      
Apr 22 22:55 Calm 16.09 Clear CLR 8 -3     47%     1023.4 1024.3      
Apr 22 21:55 S 5 16.09 Clear CLR 8 -2     49% 7   1023.7 1024.8      
Apr 22 20:55 SSW 5 16.09 Clear CLR 10 -2     42% 10   1023.7 1024.5      
Apr 22 19:55 S 8 16.09 Clear CLR 12 -1     40%     1023.4 1024.4      
Apr 22 18:55 S 15 16.09 Clear CLR 14 0     37%     1023 1024.3      
Apr 22 17:55 SSW 18 16.09 Clear CLR 16 0     35%     1023.4 1024.7      
Apr 22 16:55 WSW 17 16.09 Clear CLR 16 -1     33%     1023.7 1024.8      
Apr 22 15:55 SW 13 16.09 Clear CLR 16 -2     31%     1024.1 1025.1      
Apr 22 14:55 WSW 15 16.09 Clear CLR 16 -2     31%     1025.1 1025.9      
Apr 22 13:55 SW 21 16.09 Clear CLR 15 -1     34%     1025.7 1026.8      
Apr 22 12:55 SW 21 16.09 Clear CLR 14 -2     34%     1026.4 1027.5      
Apr 22 11:55 SW 17 16.09 Clear CLR 13 -3     31%     1026.8 1028      
Apr 22 10:55 S 13 16.09 Clear CLR 12 -4     32%     1027.4 1028.6      
Apr 22 09:55 S 9 16.09 Clear CLR 10 -3     39% 9   1027.4 1028.6      
Apr 22 08:55 S 9 16.09 Clear CLR 9 -4     39% 8   1028.1 1029      
Apr 22 07:55 Calm 16.09 Clear CLR 6 -3     55%     1028.1 1029.2      
Apr 22 06:55 Calm 16.09 Clear CLR 0 -6     64%     1027.8 1029      
Apr 22 05:55 Calm 16.09 Clear CLR -1 -7     61%     1027.1 1028.4      
Apr 22 04:55 Calm 16.09 Clear CLR 2 -7     54%     1026.8 1028      
Apr 22 03:55 Calm 16.09 Clear CLR 2 -7     52%     1026.4 1027.7      
Apr 22 02:55 Calm 16.09 Clear CLR 3 -8     46%     1026.4 1027.5      
Apr 22 01:55 Calm 16.09 Clear CLR 2 -8     48%     1026.8 1028.1      
Apr 22 00:55 SE 5 16.09 Clear CLR 4 -7     43% 3   1027.1 1028.2 0   0
Apr 21 23:55 Calm 16.09 Clear CLR 4 -7     43%     1027.1 1028.3      
Apr 21 22:55 ESE 5 16.09 Clear CLR 6 -8     36% 5   1027.8 1028.8      
Apr 21 21:55 Calm 16.09 Clear CLR 7 -6     40%     1027.4 1028.5      
Apr 21 20:55 SSW 5 16.09 Clear CLR 9 -7     33% 8   1026.8 1028      
Apr 21 19:55 ESE 8 16.09 Clear CLR 11 -6     30%     1026.8 1027.8      
Apr 21 18:55 Calm 16.09 Clear CLR 13 -7     23%     1026.4 1027.7      
Apr 21 17:55 5 16.09 Clear CLR 13 -7     23%     1026.8 1027.8      
Apr 21 16:55 ESE 5 16.09 Clear CLR 13 -7     23%     1026.8 1028      
Apr 21 15:55 SSE 8 16.09 Clear CLR 13 -8     21%     1026.8 1028      
Apr 21 14:55 NW 8 16.09 Clear CLR 13 -8     22%     1027.4 1028.4      
Apr 21 13:55 SW 18 16.09 Clear CLR 12 -6     28%     1027.8 1028.9      
Apr 21 12:55 Calm 16.09 Clear CLR 12 -4     31%     1028.1 1029.2      
Apr 21 11:55 SSW 5 16.09 Clear CLR 12 -6     28%     1028.8 1029.8      
Apr 21 10:55 W 9 16.09 Clear CLR 11 -5     33%     1028.8 1029.9      
Apr 21 09:55 8 16.09 Clear CLR 11 -4     36%     1029.1 1030.3      
Apr 21 08:55 W 5 16.09 Clear CLR 9 -4     40% 8   1029.8 1030.9      
Apr 21 07:55 WNW 5 16.09 Clear CLR 5 -2     60% 4   1029.8 1030.9      
Apr 21 05:55 NNW 9 16.09 Clear CLR 2 -7     52% -1   1028.8 1030.1      
Apr 21 04:55 NNW 8 16.09 Clear CLR 1 -7     56% -1   1028.8 1030.2      
Apr 21 03:55 NW 5 16.09 Clear CLR 2 -7     50% 1   1028.8 1030      
Apr 21 02:55 NW 5 16.09 Clear CLR 3 -7     48% 1   1028.8 1030      
Apr 21 01:55 WNW 9 16.09 Clear CLR 4 -7     43% 2   1028.8 1030.1      
Apr 21 00:55 WNW 11 16.09 Clear CLR 4 -7     43% 2   1029.1 1030.4      
Apr 20 23:55 W 11 16.09 Clear CLR 5 -7     43% 2   1029.5 1030.6      
Apr 20 22:55 WSW 13 16.09 Clear CLR 6 -5     46% 3   1029.5 1030.6      
Apr 20 21:55 WSW 13 16.09 Clear CLR 7 -4     44% 5   1029.1 1030.2      
Apr 20 20:55 WSW 13 16.09 Clear CLR 8 -4     42% 6   1028.8 1030      
Apr 20 19:55 SW 11 16.09 Clear CLR 10 -4     37% 8   1028.8 1030      
Apr 20 18:55 S 13 16.09 Clear CLR 12 -3     35%     1028.5 1029.8      
Apr 20 17:55 SW 9 16.09 Clear CLR 12 -5     30%     1028.1 1029.5      
Apr 20 16:55 8 16.09 Clear CLR 13 -4     30%     1028.5 1029.7      
Apr 20 15:55 SW 15 16.09 Clear CLR 12 -4     31%     1028.8 1030      
Apr 20 14:55 SW 13 16.09 Clear CLR 12 -4     31%     1029.1 1030.5      
Apr 20 13:55 W 15 16.09 Clear CLR 12 -4     33%     1029.5 1030.9      
Apr 20 11:55 SW 9 16.09 Clear CLR 11 -6     29%     1030.5 1031.7      
Apr 20 10:55 WSW 9 16.09 Clear CLR 11 -4     36%     1030.5 1031.8      
Apr 20 08:55 W 8 16.09 Clear CLR 7 -2     53% 6   1030.8 1032.1      
Apr 20 07:55 Calm 16.09 Clear CLR 3 -2     67%     1030.5 1031.9      
Apr 20 06:55 NW 8 16.09 Clear CLR 2 -4     64% -1   1030.1 1031.5      
Apr 20 05:55 Calm 16.09 Clear CLR 1 -6     63%     1030.1 1031.4      
Apr 20 04:55 WNW 5 16.09 Clear CLR 1 -6     59% -1   1029.8 1031.3      
Apr 20 03:55 W 11 16.09 Clear CLR 1 -8     51% -2   1029.8 1031.2      
Apr 20 02:55 WNW 9 16.09 Clear CLR 2 -8     49% -1   1029.5 1030.8      
Apr 20 01:55 WNW 8 16.09 Clear CLR 2 -8     49% -1   1029.5 1030.7      
Apr 20 00:55 W 13 16.09 Clear CLR 3 -8     44% -1   1029.1 1030.5      
Apr 19 22:55 W 15 16.09 Clear CLR 4 -8     41% 0   1028.8 1030.3      
Jun 11 10:55   6.44 Rain and Fog/Mist OVC095 15 14     93%     1007.1   0    
Jun 11 06:55 Calm 16.09 Partly Cloudy SCT120 16 14     87%     1008.1 1007.8      
Notice The following observation data may not be complete
Jun 10 05:21   16.09 Mostly Cloudy SCT008 SCT042 BKN075   16      %     999.3   3    
Jun 08 23:55 ENE 8 16.09 Mostly Clear FEW100 14 12     87%     1011.9 1011.8      
Jun 08 03:55 Calm 16.09 Mostly Clear FEW120 13 11     87%     1012.5 1012.4      
Jun 07 21:24 ESE 11 16.09 Thunderstorms SCT050 BKN080 BKN120 19 8     48%     1014.9        
Jun 07 13:55 S 17 16.09 Mostly Clear FEW120 26 11     38%   26 1017.6 1017.6      
Jun 06 01:55 Calm 16.09 Clear CLR 7 4     80%     1020 1020.5      
Jun 05 17:55 E 21 16.09 Clear CLR 20 8     45%     1018 1018.3      
Jun 05 14:55 E 21 16.09 Mostly Clear FEW045 21 9     49%     1018.3 1018.6